owner,sensor,date,latitude,longitude,air_temperature,qcFlag 
TABS,ioos:station:wmo:42045:1,2004-08-18T16:09:00Z,26.2168,-96.4998,28.9,11144222 
TABS,ioos:station:wmo:42045:1,2004-08-18T16:39:00Z,26.2168,-96.4998,29.9,11144222 
TABS,ioos:station:wmo:42045:1,2004-08-18T17:09:00Z,26.2168,-96.4998,29.9,11144222 
TABS,ioos:station:wmo:42045:1,2004-08-18T17:39:00Z,26.2168,-96.4998,29.6,11144222 
TABS,ioos:station:wmo:42045:1,2004-08-18T18:09:00Z,26.2168,-96.4998,29.6,11144222 
TABS,ioos:station:wmo:42045:1,2004-08-18T18:39:00Z,26.2168,-96.4998,29.5,11144222 
TABS,ioos:station:wmo:42045:1,2004-08-18T19:09:00Z,26.2168,-96.4998,30.0,11144222 
TABS,ioos:station:wmo:42045:1,2004-08-18T19:39:00Z,26.2168,-96.4998,30.0,11144222 
TABS,ioos:station:wmo:42045:1,2004-08-18T20:09:00Z,26.2168,-96.4998,29.2,11144222 
TABS,ioos:station:wmo:42045:1,2004-08-18T21:09:00Z,26.2168,-96.4998,29.4,11144222 
TABS,ioos:station:wmo:42045:1,2004-08-18T21:39:00Z,26.2168,-96.4998,29.7,11144222 
TABS,ioos:station:wmo:42045:1,2004-08-18T22:09:00Z,26.2168,-96.4998,30.0,11144222 
TABS,ioos:station:wmo:42045:1,2004-08-18T22:39:00Z,26.2168,-96.4998,29.9,11144222 
TABS,ioos:station:wmo:42045:1,2004-08-18T23:09:00Z,26.2168,-96.4998,29.9,11144222 
TABS,ioos:station:wmo:42045:1,2004-08-18T23:39:00Z,26.2168,-96.4998,30.0,11144222 
TABS,ioos:station:wmo:42045:1,2004-08-19T00:09:00Z,26.2168,-96.4998,29.7,11144222 
TABS,ioos:station:wmo:42045:1,2004-08-19T00:39:00Z,26.2168,-96.4998,29.6,11144222 
TABS,ioos:station:wmo:42045:1,2004-08-19T01:09:00Z,26.2168,-96.4998,29.7,11144222 
TABS,ioos:station:wmo:42045:1,2004-08-19T01:39:00Z,26.2168,-96.4998,29.7,11144222 
TABS,ioos:station:wmo:42045:1,2004-08-19T02:09:00Z,26.2168,-96.4998,29.7,11144222 
TABS,ioos:station:wmo:42045:1,2004-08-19T02:39:00Z,26.2168,-96.4998,29.8,11144222 
TABS,ioos:station:wmo:42045:1,2004-08-19T03:09:00Z,26.2168,-96.4998,29.8,11144222 
TABS,ioos:station:wmo:42045:1,2004-08-19T03:39:00Z,26.2168,-96.4998,29.7,11144222 
TABS,ioos:station:wmo:42045:1,2004-08-19T04:09:00Z,26.2168,-96.4998,29.8,11144222 
TABS,ioos:station:wmo:42045:1,2004-08-19T04:39:00Z,26.2168,-96.4998,29.8,11144222 
TABS,ioos:station:wmo:42045:1,2004-08-19T05:09:00Z,26.2168,-96.4998,29.8,11144222 
TABS,ioos:station:wmo:42045:1,2004-08-19T05:39:00Z,26.2168,-96.4998,29.8,11144222 
TABS,ioos:station:wmo:42045:1,2004-08-19T06:09:00Z,26.2168,-96.4998,29.9,11144222 
TABS,ioos:station:wmo:42045:1,2004-08-19T06:39:00Z,26.2168,-96.4998,29.8,11144222 
TABS,ioos:station:wmo:42045:1,2004-08-19T07:09:00Z,26.2168,-96.4998,29.8,11144222 
TABS,ioos:station:wmo:42045:1,2004-08-19T07:39:00Z,26.2168,-96.4998,29.8,11144222 
TABS,ioos:station:wmo:42045:1,2004-08-19T08:09:00Z,26.2168,-96.4998,29.8,11144222 
TABS,ioos:station:wmo:42045:1,2004-08-19T08:39:00Z,26.2168,-96.4998,29.8,11144222 
TABS,ioos:station:wmo:42045:1,2004-08-19T09:09:00Z,26.2168,-96.4998,29.7,11144222 
TABS,ioos:station:wmo:42045:1,2004-08-19T09:39:00Z,26.2168,-96.4998,29.7,11144222 
TABS,ioos:station:wmo:42045:1,2004-08-19T10:09:00Z,26.2168,-96.4998,29.6,11144222 
TABS,ioos:station:wmo:42045:1,2004-08-19T10:39:00Z,26.2168,-96.4998,29.6,11144222 
TABS,ioos:station:wmo:42045:1,2004-08-19T11:09:00Z,26.2168,-96.4998,29.7,11144222 
TABS,ioos:station:wmo:42045:1,2004-08-19T11:39:00Z,26.2168,-96.4998,29.7,11144222 
TABS,ioos:station:wmo:42045:1,2004-08-19T12:09:00Z,26.2168,-96.4998,29.8,11144222 
TABS,ioos:station:wmo:42045:1,2004-08-19T12:39:00Z,26.2168,-96.4998,30.0,11144222 
TABS,ioos:station:wmo:42045:1,2004-08-19T13:09:00Z,26.2168,-96.4998,30.1,11144222 
TABS,ioos:station:wmo:42045:1,2004-08-19T13:39:00Z,26.2168,-96.4998,30.0,11144222 
TABS,ioos:station:wmo:42045:1,2004-08-19T14:09:00Z,26.2168,-96.4998,29.9,11144222 
TABS,ioos:station:wmo:42045:1,2004-08-19T15:09:00Z,26.2168,-96.4998,30.0,11144222 
TABS,ioos:station:wmo:42045:1,2004-08-19T15:39:00Z,26.2168,-96.4998,30.1,11144222 
TABS,ioos:station:wmo:42045:1,2004-08-19T16:09:00Z,26.2168,-96.4998,30.0,11144222 
TABS,ioos:station:wmo:42045:1,2004-08-19T16:39:00Z,26.2168,-96.4998,30.0,11144222 
TABS,ioos:station:wmo:42045:1,2004-08-19T17:09:00Z,26.2168,-96.4998,30.0,11144222 
TABS,ioos:station:wmo:42045:1,2004-08-19T18:09:00Z,26.2168,-96.4998,30.2,11144222 
TABS,ioos:station:wmo:42045:1,2004-08-19T18:39:00Z,26.2168,-96.4998,30.2,11144222 
TABS,ioos:station:wmo:42045:1,2004-08-19T19:09:00Z,26.2168,-96.4998,30.2,11144222 
TABS,ioos:station:wmo:42045:1,2004-08-19T19:39:00Z,26.2168,-96.4998,30.2,11144222 
TABS,ioos:station:wmo:42045:1,2004-08-19T20:09:00Z,26.2168,-96.4998,30.2,11144222 
TABS,ioos:station:wmo:42045:1,2004-08-19T21:09:00Z,26.2168,-96.4998,30.3,11144222 
TABS,ioos:station:wmo:42045:1,2004-08-19T21:39:00Z,26.2168,-96.4998,30.3,11144222 
TABS,ioos:station:wmo:42045:1,2004-08-19T22:09:00Z,26.2168,-96.4998,30.3,11144222 
TABS,ioos:station:wmo:42045:1,2004-08-19T22:39:00Z,26.2168,-96.4998,30.4,11144222 
TABS,ioos:station:wmo:42045:1,2004-08-19T23:09:00Z,26.2168,-96.4998,30.4,11144222 
TABS,ioos:station:wmo:42045:1,2004-08-19T23:39:00Z,26.2168,-96.4998,30.4,11144222 
TABS,ioos:station:wmo:42045:1,2004-08-20T00:09:00Z,26.2168,-96.4998,30.2,11144222 
TABS,ioos:station:wmo:42045:1,2004-08-20T00:39:00Z,26.2168,-96.4998,30.2,11144222 
TABS,ioos:station:wmo:42045:1,2004-08-20T01:09:00Z,26.2168,-96.4998,30.2,11144222 
TABS,ioos:station:wmo:42045:1,2004-08-20T01:39:00Z,26.2168,-96.4998,30.2,11144222 
TABS,ioos:station:wmo:42045:1,2004-08-20T02:09:00Z,26.2168,-96.4998,30.2,11144222 
TABS,ioos:station:wmo:42045:1,2004-08-20T02:39:00Z,26.2168,-96.4998,30.2,11144222 
TABS,ioos:station:wmo:42045:1,2004-08-20T03:09:00Z,26.2168,-96.4998,30.1,11144222 
TABS,ioos:station:wmo:42045:1,2004-08-20T03:39:00Z,26.2168,-96.4998,30.2,11144222 
TABS,ioos:station:wmo:42045:1,2004-08-20T04:09:00Z,26.2168,-96.4998,30.2,11144222 
TABS,ioos:station:wmo:42045:1,2004-08-20T04:39:00Z,26.2168,-96.4998,30.2,11144222 
TABS,ioos:station:wmo:42045:1,2004-08-20T05:09:00Z,26.2168,-96.4998,30.3,11144222 
TABS,ioos:station:wmo:42045:1,2004-08-20T05:39:00Z,26.2168,-96.4998,30.2,11144222 
TABS,ioos:station:wmo:42045:1,2004-08-20T06:09:00Z,26.2168,-96.4998,30.1,11144222 
TABS,ioos:station:wmo:42045:1,2004-08-20T06:39:00Z,26.2168,-96.4998,30.1,11144222 
TABS,ioos:station:wmo:42045:1,2004-08-20T07:09:00Z,26.2168,-96.4998,30.2,11144222 
TABS,ioos:station:wmo:42045:1,2004-08-20T07:39:00Z,26.2168,-96.4998,30.1,11144222 
TABS,ioos:station:wmo:42045:1,2004-08-20T08:09:00Z,26.2168,-96.4998,30.1,11144222 
TABS,ioos:station:wmo:42045:1,2004-08-20T08:39:00Z,26.2168,-96.4998,30.1,11144222 
TABS,ioos:station:wmo:42045:1,2004-08-20T09:09:00Z,26.2168,-96.4998,30.1,11144222 
TABS,ioos:station:wmo:42045:1,2004-08-20T09:39:00Z,26.2168,-96.4998,30.0,11144222 
TABS,ioos:station:wmo:42045:1,2004-08-20T10:09:00Z,26.2168,-96.4998,30.0,11144222 
TABS,ioos:station:wmo:42045:1,2004-08-20T10:39:00Z,26.2168,-96.4998,30.0,11144222 
TABS,ioos:station:wmo:42045:1,2004-08-20T11:09:00Z,26.2168,-96.4998,30.0,11144222 
TABS,ioos:station:wmo:42045:1,2004-08-20T11:39:00Z,26.2168,-96.4998,29.9,11144222 
TABS,ioos:station:wmo:42045:1,2004-08-20T12:09:00Z,26.2168,-96.4998,30.0,11144222 
TABS,ioos:station:wmo:42045:1,2004-08-20T12:39:00Z,26.2168,-96.4998,30.1,11144222 
TABS,ioos:station:wmo:42045:1,2004-08-20T13:09:00Z,26.2168,-96.4998,30.1,11144222 
TABS,ioos:station:wmo:42045:1,2004-08-20T13:39:00Z,26.2168,-96.4998,30.2,11144222 
TABS,ioos:station:wmo:42045:1,2004-08-20T14:00:00Z,26.2168,-96.4998,30.2,11111222 
TABS,ioos:station:wmo:42045:1,2004-08-20T14:09:00Z,26.2168,-96.4998,30.2,11144222 
TABS,ioos:station:wmo:42045:1,2004-08-20T14:39:00Z,26.2168,-96.4998,30.2,11144222 
TABS,ioos:station:wmo:42045:1,2004-08-20T15:00:00Z,26.2168,-96.4998,30.2,11111222 
TABS,ioos:station:wmo:42045:1,2004-08-20T15:09:00Z,26.2168,-96.4998,30.2,11144222 
TABS,ioos:station:wmo:42045:1,2004-08-20T15:39:00Z,26.2168,-96.4998,30.2,11144222 
TABS,ioos:station:wmo:42045:1,2004-08-20T16:00:00Z,26.2168,-96.4998,30.2,11111222 
TABS,ioos:station:wmo:42045:1,2004-08-20T16:09:00Z,26.2168,-96.4998,30.2,11144222 
TABS,ioos:station:wmo:42045:1,2004-08-20T16:39:00Z,26.2168,-96.4998,30.3,11144222 
TABS,ioos:station:wmo:42045:1,2004-08-20T17:00:00Z,26.2168,-96.4998,30.3,11111222 
TABS,ioos:station:wmo:42045:1,2004-08-20T17:09:00Z,26.2168,-96.4998,30.3,11144222 
TABS,ioos:station:wmo:42045:1,2004-08-20T17:39:00Z,26.2168,-96.4998,30.2,11144222 
TABS,ioos:station:wmo:42045:1,2004-08-20T18:00:00Z,26.2168,-96.4998,30.3,11111222 
TABS,ioos:station:wmo:42045:1,2004-08-20T18:09:00Z,26.2168,-96.4998,30.3,11144222 
TABS,ioos:station:wmo:42045:1,2004-08-20T18:39:00Z,26.2168,-96.4998,30.3,11144222 
TABS,ioos:station:wmo:42045:1,2004-08-20T19:00:00Z,26.2168,-96.4998,30.3,11111222 
TABS,ioos:station:wmo:42045:1,2004-08-20T19:09:00Z,26.2168,-96.4998,30.3,11144222 
TABS,ioos:station:wmo:42045:1,2004-08-20T19:39:00Z,26.2168,-96.4998,30.4,11144222 
TABS,ioos:station:wmo:42045:1,2004-08-20T20:00:00Z,26.2168,-96.4998,30.4,11111222 
TABS,ioos:station:wmo:42045:1,2004-08-20T20:09:00Z,26.2168,-96.4998,30.4,11144222 
TABS,ioos:station:wmo:42045:1,2004-08-20T20:39:00Z,26.2168,-96.4998,30.5,11144222 
TABS,ioos:station:wmo:42045:1,2004-08-20T21:00:00Z,26.2168,-96.4998,30.5,11111222 
TABS,ioos:station:wmo:42045:1,2004-08-20T21:09:00Z,26.2168,-96.4998,30.5,11144222 
TABS,ioos:station:wmo:42045:1,2004-08-20T21:39:00Z,26.2168,-96.4998,30.5,11144222 
TABS,ioos:station:wmo:42045:1,2004-08-20T22:00:00Z,26.2168,-96.4998,30.5,11111222 
TABS,ioos:station:wmo:42045:1,2004-08-20T22:09:00Z,26.2168,-96.4998,30.5,11144222 
TABS,ioos:station:wmo:42045:1,2004-08-20T22:39:00Z,26.2168,-96.4998,30.5,11144222 
TABS,ioos:station:wmo:42045:1,2004-08-20T23:00:00Z,26.2168,-96.4998,30.5,11111222 
TABS,ioos:station:wmo:42045:1,2004-08-20T23:09:00Z,26.2168,-96.4998,30.5,11144222 
TABS,ioos:station:wmo:42045:1,2004-08-20T23:39:00Z,26.2168,-96.4998,30.4,11144222 
TABS,ioos:station:wmo:42045:1,2004-08-21T00:00:00Z,26.2168,-96.4998,30.3,11111222 
TABS,ioos:station:wmo:42045:1,2004-08-21T00:09:00Z,26.2168,-96.4998,30.3,11144222 
TABS,ioos:station:wmo:42045:1,2004-08-21T00:39:00Z,26.2168,-96.4998,30.3,11144222 
TABS,ioos:station:wmo:42045:1,2004-08-21T01:00:00Z,26.2168,-96.4998,30.2,11111222 
TABS,ioos:station:wmo:42045:1,2004-08-21T01:09:00Z,26.2168,-96.4998,30.2,11144222 
TABS,ioos:station:wmo:42045:1,2004-08-21T01:39:00Z,26.2168,-96.4998,30.3,11144222 
TABS,ioos:station:wmo:42045:1,2004-08-21T02:00:00Z,26.2168,-96.4998,30.2,11111222 
TABS,ioos:station:wmo:42045:1,2004-08-21T02:09:00Z,26.2168,-96.4998,30.2,11144222 
TABS,ioos:station:wmo:42045:1,2004-08-21T02:39:00Z,26.2168,-96.4998,30.2,11144222 
TABS,ioos:station:wmo:42045:1,2004-08-21T03:00:00Z,26.2168,-96.4998,30.2,11111222 
TABS,ioos:station:wmo:42045:1,2004-08-21T03:09:00Z,26.2168,-96.4998,30.2,11144222 
TABS,ioos:station:wmo:42045:1,2004-08-21T03:39:00Z,26.2168,-96.4998,30.2,11144222 
TABS,ioos:station:wmo:42045:1,2004-08-21T04:00:00Z,26.2168,-96.4998,30.2,11111222 
TABS,ioos:station:wmo:42045:1,2004-08-21T04:09:00Z,26.2168,-96.4998,30.2,11144222 
TABS,ioos:station:wmo:42045:1,2004-08-21T04:39:00Z,26.2168,-96.4998,30.1,11144222 
TABS,ioos:station:wmo:42045:1,2004-08-21T05:00:00Z,26.2168,-96.4998,30.1,11111222 
TABS,ioos:station:wmo:42045:1,2004-08-21T05:09:00Z,26.2168,-96.4998,30.1,11144222 
TABS,ioos:station:wmo:42045:1,2004-08-21T05:39:00Z,26.2168,-96.4998,30.0,11144222 
TABS,ioos:station:wmo:42045:1,2004-08-21T06:00:00Z,26.2168,-96.4998,30.1,11111222 
TABS,ioos:station:wmo:42045:1,2004-08-21T06:09:00Z,26.2168,-96.4998,30.1,11144222 
TABS,ioos:station:wmo:42045:1,2004-08-21T06:39:00Z,26.2168,-96.4998,30.0,11144222 
TABS,ioos:station:wmo:42045:1,2004-08-21T07:00:00Z,26.2168,-96.4998,30.0,11111222 
TABS,ioos:station:wmo:42045:1,2004-08-21T07:09:00Z,26.2168,-96.4998,30.0,11144222 
TABS,ioos:station:wmo:42045:1,2004-08-21T07:39:00Z,26.2168,-96.4998,29.9,11144222 
TABS,ioos:station:wmo:42045:1,2004-08-21T08:00:00Z,26.2168,-96.4998,30.0,11111222 
TABS,ioos:station:wmo:42045:1,2004-08-21T08:09:00Z,26.2168,-96.4998,30.0,11144222 
TABS,ioos:station:wmo:42045:1,2004-08-21T08:39:00Z,26.2168,-96.4998,29.9,11144222 
TABS,ioos:station:wmo:42045:1,2004-08-21T09:00:00Z,26.2168,-96.4998,29.9,11111222 
TABS,ioos:station:wmo:42045:1,2004-08-21T09:09:00Z,26.2168,-96.4998,29.9,11144222 
TABS,ioos:station:wmo:42045:1,2004-08-21T09:39:00Z,26.2168,-96.4998,30.0,11144222 
TABS,ioos:station:wmo:42045:1,2004-08-21T10:00:00Z,26.2168,-96.4998,30.0,11111222 
TABS,ioos:station:wmo:42045:1,2004-08-21T10:09:00Z,26.2168,-96.4998,30.0,11144222 
TABS,ioos:station:wmo:42045:1,2004-08-21T10:39:00Z,26.2168,-96.4998,30.0,11144222 
TABS,ioos:station:wmo:42045:1,2004-08-21T11:00:00Z,26.2168,-96.4998,29.9,11111222 
TABS,ioos:station:wmo:42045:1,2004-08-21T11:09:00Z,26.2168,-96.4998,29.9,11144222 
TABS,ioos:station:wmo:42045:1,2004-08-21T11:39:00Z,26.2168,-96.4998,29.9,11144222 
TABS,ioos:station:wmo:42045:1,2004-08-21T12:00:00Z,26.2168,-96.4998,30.1,11111222 
TABS,ioos:station:wmo:42045:1,2004-08-21T12:09:00Z,26.2168,-96.4998,30.1,11144222 
TABS,ioos:station:wmo:42045:1,2004-08-21T12:39:00Z,26.2168,-96.4998,30.2,11144222 
TABS,ioos:station:wmo:42045:1,2004-08-21T13:00:00Z,26.2168,-96.4998,30.2,11111222 
TABS,ioos:station:wmo:42045:1,2004-08-21T13:09:00Z,26.2168,-96.4998,30.2,11144222 
TABS,ioos:station:wmo:42045:1,2004-08-21T13:39:00Z,26.2168,-96.4998,30.2,11144222 
TABS,ioos:station:wmo:42045:1,2004-08-21T14:00:00Z,26.2168,-96.4998,30.2,11111222 
TABS,ioos:station:wmo:42045:1,2004-08-21T14:09:00Z,26.2168,-96.4998,30.2,11144222 
TABS,ioos:station:wmo:42045:1,2004-08-21T14:39:00Z,26.2168,-96.4998,30.2,11144222 
TABS,ioos:station:wmo:42045:1,2004-08-21T15:00:00Z,26.2168,-96.4998,30.3,11111222 
TABS,ioos:station:wmo:42045:1,2004-08-21T15:09:00Z,26.2168,-96.4998,30.3,11144222 
TABS,ioos:station:wmo:42045:1,2004-08-21T15:39:00Z,26.2168,-96.4998,30.3,11144222 
TABS,ioos:station:wmo:42045:1,2004-08-21T16:00:00Z,26.2168,-96.4998,30.3,11111222 
TABS,ioos:station:wmo:42045:1,2004-08-21T16:09:00Z,26.2168,-96.4998,30.3,11144222 
TABS,ioos:station:wmo:42045:1,2004-08-21T16:39:00Z,26.2168,-96.4998,30.3,11144222 
TABS,ioos:station:wmo:42045:1,2004-08-21T17:00:00Z,26.2168,-96.4998,30.3,11111222 
TABS,ioos:station:wmo:42045:1,2004-08-21T17:09:00Z,26.2168,-96.4998,30.3,11144222 
TABS,ioos:station:wmo:42045:1,2004-08-21T17:39:00Z,26.2168,-96.4998,30.3,11144222 
TABS,ioos:station:wmo:42045:1,2004-08-21T18:00:00Z,26.2168,-96.4998,30.4,11111222 
TABS,ioos:station:wmo:42045:1,2004-08-21T18:09:00Z,26.2168,-96.4998,30.4,11144222 
TABS,ioos:station:wmo:42045:1,2004-08-21T18:39:00Z,26.2168,-96.4998,30.3,11144222 
TABS,ioos:station:wmo:42045:1,2004-08-21T19:00:00Z,26.2168,-96.4998,30.3,11111222 
TABS,ioos:station:wmo:42045:1,2004-08-21T19:09:00Z,26.2168,-96.4998,30.3,11144222 
TABS,ioos:station:wmo:42045:1,2004-08-21T19:39:00Z,26.2168,-96.4998,30.3,11144222 
TABS,ioos:station:wmo:42045:1,2004-08-21T20:00:00Z,26.2168,-96.4998,30.3,11111222 
TABS,ioos:station:wmo:42045:1,2004-08-21T20:09:00Z,26.2168,-96.4998,30.3,11144222 
TABS,ioos:station:wmo:42045:1,2004-08-21T20:39:00Z,26.2168,-96.4998,30.4,11144222 
TABS,ioos:station:wmo:42045:1,2004-08-21T21:00:00Z,26.2168,-96.4998,30.4,11111222 
TABS,ioos:station:wmo:42045:1,2004-08-21T21:09:00Z,26.2168,-96.4998,30.4,11144222 
TABS,ioos:station:wmo:42045:1,2004-08-21T21:39:00Z,26.2168,-96.4998,30.5,11144222 
TABS,ioos:station:wmo:42045:1,2004-08-21T22:00:00Z,26.2168,-96.4998,30.5,11111222 
TABS,ioos:station:wmo:42045:1,2004-08-21T22:09:00Z,26.2168,-96.4998,30.5,11144222 
TABS,ioos:station:wmo:42045:1,2004-08-21T22:39:00Z,26.2168,-96.4998,30.6,11144222 
TABS,ioos:station:wmo:42045:1,2004-08-21T23:00:00Z,26.2168,-96.4998,30.5,11111222 
TABS,ioos:station:wmo:42045:1,2004-08-21T23:09:00Z,26.2168,-96.4998,30.5,11144222 
TABS,ioos:station:wmo:42045:1,2004-08-21T23:39:00Z,26.2168,-96.4998,30.4,11144222 
TABS,ioos:station:wmo:42045:1,2004-08-22T00:00:00Z,26.2168,-96.4998,30.3,11111222 
TABS,ioos:station:wmo:42045:1,2004-08-22T00:09:00Z,26.2168,-96.4998,30.3,11144222 
TABS,ioos:station:wmo:42045:1,2004-08-22T00:39:00Z,26.2168,-96.4998,30.3,11144222 
TABS,ioos:station:wmo:42045:1,2004-08-22T01:00:00Z,26.2168,-96.4998,30.3,11111222 
TABS,ioos:station:wmo:42045:1,2004-08-22T01:09:00Z,26.2168,-96.4998,30.3,11144222 
TABS,ioos:station:wmo:42045:1,2004-08-22T01:39:00Z,26.2168,-96.4998,30.3,11144222 
TABS,ioos:station:wmo:42045:1,2004-08-22T02:00:00Z,26.2168,-96.4998,30.2,11111222 
TABS,ioos:station:wmo:42045:1,2004-08-22T02:09:00Z,26.2168,-96.4998,30.2,11144222 
TABS,ioos:station:wmo:42045:1,2004-08-22T02:39:00Z,26.2168,-96.4998,30.3,11144222 
TABS,ioos:station:wmo:42045:1,2004-08-22T03:00:00Z,26.2168,-96.4998,30.3,11111222 
TABS,ioos:station:wmo:42045:1,2004-08-22T03:09:00Z,26.2168,-96.4998,30.3,11144222 
TABS,ioos:station:wmo:42045:1,2004-08-22T03:39:00Z,26.2168,-96.4998,30.3,11144222 
TABS,ioos:station:wmo:42045:1,2004-08-22T04:00:00Z,26.2168,-96.4998,30.2,11111222 
TABS,ioos:station:wmo:42045:1,2004-08-22T04:09:00Z,26.2168,-96.4998,30.2,11144222 
TABS,ioos:station:wmo:42045:1,2004-08-22T04:39:00Z,26.2168,-96.4998,30.2,11144222 
TABS,ioos:station:wmo:42045:1,2004-08-22T05:00:00Z,26.2168,-96.4998,30.2,11111222 
TABS,ioos:station:wmo:42045:1,2004-08-22T05:09:00Z,26.2168,-96.4998,30.2,11144222 
TABS,ioos:station:wmo:42045:1,2004-08-22T05:39:00Z,26.2168,-96.4998,30.1,11144222 
TABS,ioos:station:wmo:42045:1,2004-08-22T06:00:00Z,26.2168,-96.4998,30.1,11111222 
TABS,ioos:station:wmo:42045:1,2004-08-22T06:09:00Z,26.2168,-96.4998,30.1,11144222 
TABS,ioos:station:wmo:42045:1,2004-08-22T06:39:00Z,26.2168,-96.4998,30.1,11144222 
TABS,ioos:station:wmo:42045:1,2004-08-22T07:00:00Z,26.2168,-96.4998,30.2,11111222 
TABS,ioos:station:wmo:42045:1,2004-08-22T07:09:00Z,26.2168,-96.4998,30.2,11144222 
TABS,ioos:station:wmo:42045:1,2004-08-22T07:39:00Z,26.2168,-96.4998,30.2,11144222 
TABS,ioos:station:wmo:42045:1,2004-08-22T08:00:00Z,26.2168,-96.4998,29.7,11111222 
TABS,ioos:station:wmo:42045:1,2004-08-22T08:09:00Z,26.2168,-96.4998,29.7,11144222 
TABS,ioos:station:wmo:42045:1,2004-08-22T08:39:00Z,26.2168,-96.4998,29.6,11144222 
TABS,ioos:station:wmo:42045:1,2004-08-22T09:00:00Z,26.2168,-96.4998,29.4,11111222 
TABS,ioos:station:wmo:42045:1,2004-08-22T09:09:00Z,26.2168,-96.4998,29.4,11144222 
TABS,ioos:station:wmo:42045:1,2004-08-22T09:39:00Z,26.2168,-96.4998,29.7,11144222 
TABS,ioos:station:wmo:42045:1,2004-08-22T10:00:00Z,26.2168,-96.4998,29.8,11111222 
TABS,ioos:station:wmo:42045:1,2004-08-22T10:09:00Z,26.2168,-96.4998,29.8,11144222 
TABS,ioos:station:wmo:42045:1,2004-08-22T10:39:00Z,26.2168,-96.4998,29.2,11144222 
TABS,ioos:station:wmo:42045:1,2004-08-22T11:00:00Z,26.2168,-96.4998,29.4,11111222 
TABS,ioos:station:wmo:42045:1,2004-08-22T11:09:00Z,26.2168,-96.4998,29.4,11144222 
TABS,ioos:station:wmo:42045:1,2004-08-22T11:39:00Z,26.2168,-96.4998,29.3,11144222 
TABS,ioos:station:wmo:42045:1,2004-08-22T12:00:00Z,26.2168,-96.4998,29.9,11111222 
TABS,ioos:station:wmo:42045:1,2004-08-22T12:09:00Z,26.2168,-96.4998,29.9,11144222 
TABS,ioos:station:wmo:42045:1,2004-08-22T12:39:00Z,26.2168,-96.4998,30.1,11144222 
TABS,ioos:station:wmo:42045:1,2004-08-22T13:00:00Z,26.2168,-96.4998,30.3,11111222 
TABS,ioos:station:wmo:42045:1,2004-08-22T13:09:00Z,26.2168,-96.4998,30.3,11144222 
TABS,ioos:station:wmo:42045:1,2004-08-22T13:39:00Z,26.2168,-96.4998,30.2,11144222 
TABS,ioos:station:wmo:42045:1,2004-08-22T14:00:00Z,26.2168,-96.4998,30.2,11111222 
TABS,ioos:station:wmo:42045:1,2004-08-22T14:09:00Z,26.2168,-96.4998,30.2,11144222 
TABS,ioos:station:wmo:42045:1,2004-08-22T14:39:00Z,26.2168,-96.4998,30.4,11144222 
TABS,ioos:station:wmo:42045:1,2004-08-22T15:00:00Z,26.2168,-96.4998,30.4,11111222 
TABS,ioos:station:wmo:42045:1,2004-08-22T15:09:00Z,26.2168,-96.4998,30.4,11144222 
TABS,ioos:station:wmo:42045:1,2004-08-22T15:39:00Z,26.2168,-96.4998,30.4,11144222 
TABS,ioos:station:wmo:42045:1,2004-08-22T16:00:00Z,26.2168,-96.4998,30.4,11111222 
TABS,ioos:station:wmo:42045:1,2004-08-22T16:09:00Z,26.2168,-96.4998,30.4,11144222 
TABS,ioos:station:wmo:42045:1,2004-08-22T16:39:00Z,26.2168,-96.4998,30.4,11144222 
TABS,ioos:station:wmo:42045:1,2004-08-22T17:00:00Z,26.2168,-96.4998,30.3,11111222 
TABS,ioos:station:wmo:42045:1,2004-08-22T17:09:00Z,26.2168,-96.4998,30.3,11144222 
TABS,ioos:station:wmo:42045:1,2004-08-22T17:39:00Z,26.2168,-96.4998,30.3,11144222 
TABS,ioos:station:wmo:42045:1,2004-08-22T18:00:00Z,26.2168,-96.4998,30.4,11111222 
TABS,ioos:station:wmo:42045:1,2004-08-22T18:09:00Z,26.2168,-96.4998,30.4,11144222 
TABS,ioos:station:wmo:42045:1,2004-08-22T18:39:00Z,26.2168,-96.4998,30.4,11144222 
TABS,ioos:station:wmo:42045:1,2004-08-22T19:00:00Z,26.2168,-96.4998,30.4,11111222 
TABS,ioos:station:wmo:42045:1,2004-08-22T19:09:00Z,26.2168,-96.4998,30.4,11144222 
TABS,ioos:station:wmo:42045:1,2004-08-22T19:39:00Z,26.2168,-96.4998,30.4,11144222 
TABS,ioos:station:wmo:42045:1,2004-08-22T20:00:00Z,26.2168,-96.4998,30.5,11111222 
TABS,ioos:station:wmo:42045:1,2004-08-22T20:09:00Z,26.2168,-96.4998,30.5,11144222 
TABS,ioos:station:wmo:42045:1,2004-08-22T20:39:00Z,26.2168,-96.4998,30.6,11144222 
TABS,ioos:station:wmo:42045:1,2004-08-22T21:00:00Z,26.2168,-96.4998,30.7,11111222 
TABS,ioos:station:wmo:42045:1,2004-08-22T21:09:00Z,26.2168,-96.4998,30.7,11144222 
TABS,ioos:station:wmo:42045:1,2004-08-22T21:39:00Z,26.2168,-96.4998,30.6,11144222 
TABS,ioos:station:wmo:42045:1,2004-08-22T22:00:00Z,26.2168,-96.4998,30.6,11111222 
TABS,ioos:station:wmo:42045:1,2004-08-22T22:09:00Z,26.2168,-96.4998,30.6,11144222 
TABS,ioos:station:wmo:42045:1,2004-08-22T22:39:00Z,26.2168,-96.4998,30.6,11144222 
TABS,ioos:station:wmo:42045:1,2004-08-22T23:00:00Z,26.2168,-96.4998,30.7,11111222 
TABS,ioos:station:wmo:42045:1,2004-08-22T23:09:00Z,26.2168,-96.4998,30.7,11144222 
TABS,ioos:station:wmo:42045:1,2004-08-22T23:39:00Z,26.2168,-96.4998,30.7,11144222 
TABS,ioos:station:wmo:42045:1,2004-08-23T00:00:00Z,26.2168,-96.4998,30.3,11111222 
TABS,ioos:station:wmo:42045:1,2004-08-23T00:09:00Z,26.2168,-96.4998,30.3,11144222 
TABS,ioos:station:wmo:42045:1,2004-08-23T00:39:00Z,26.2168,-96.4998,30.2,11144222 
TABS,ioos:station:wmo:42045:1,2004-08-23T01:00:00Z,26.2168,-96.4998,30.3,11111222 
TABS,ioos:station:wmo:42045:1,2004-08-23T01:09:00Z,26.2168,-96.4998,30.3,11144222 
TABS,ioos:station:wmo:42045:1,2004-08-23T01:39:00Z,26.2168,-96.4998,30.3,11144222 
TABS,ioos:station:wmo:42045:1,2004-08-23T02:00:00Z,26.2168,-96.4998,30.3,11111222 
TABS,ioos:station:wmo:42045:1,2004-08-23T02:09:00Z,26.2168,-96.4998,30.3,11144222 
TABS,ioos:station:wmo:42045:1,2004-08-23T02:39:00Z,26.2168,-96.4998,30.3,11144222 
TABS,ioos:station:wmo:42045:1,2004-08-23T03:00:00Z,26.2168,-96.4998,30.4,11111222 
TABS,ioos:station:wmo:42045:1,2004-08-23T03:09:00Z,26.2168,-96.4998,30.4,11144222 
TABS,ioos:station:wmo:42045:1,2004-08-23T03:39:00Z,26.2168,-96.4998,30.3,11144222 
TABS,ioos:station:wmo:42045:1,2004-08-23T04:00:00Z,26.2168,-96.4998,30.3,11111222 
TABS,ioos:station:wmo:42045:1,2004-08-23T04:09:00Z,26.2168,-96.4998,30.3,11144222 
TABS,ioos:station:wmo:42045:1,2004-08-23T04:39:00Z,26.2168,-96.4998,30.3,11144222 
TABS,ioos:station:wmo:42045:1,2004-08-23T05:00:00Z,26.2168,-96.4998,30.3,11111222 
TABS,ioos:station:wmo:42045:1,2004-08-23T05:09:00Z,26.2168,-96.4998,30.3,11144222 
TABS,ioos:station:wmo:42045:1,2004-08-23T05:39:00Z,26.2168,-96.4998,30.3,11144222 
TABS,ioos:station:wmo:42045:1,2004-08-23T06:00:00Z,26.2168,-96.4998,30.2,11111222 
TABS,ioos:station:wmo:42045:1,2004-08-23T06:09:00Z,26.2168,-96.4998,30.2,11144222 
TABS,ioos:station:wmo:42045:1,2004-08-23T06:39:00Z,26.2168,-96.4998,30.2,11144222 
TABS,ioos:station:wmo:42045:1,2004-08-23T07:00:00Z,26.2168,-96.4998,30.2,11111222 
TABS,ioos:station:wmo:42045:1,2004-08-23T07:09:00Z,26.2168,-96.4998,30.2,11144222 
TABS,ioos:station:wmo:42045:1,2004-08-23T07:39:00Z,26.2168,-96.4998,30.2,11144222 
TABS,ioos:station:wmo:42045:1,2004-08-23T08:00:00Z,26.2168,-96.4998,30.2,11111222 
TABS,ioos:station:wmo:42045:1,2004-08-23T08:09:00Z,26.2168,-96.4998,30.2,11144222 